{"data":{"norad_id":65378,"epoch":"2026-09-20T20:25:40.333728Z","epoch_age_seconds":84476,"freshness":"FRESH","line1":"1 65378U 25190AD  26263.85116127  .00006126  00000+0  19222-3 0  9999","line2":"2 65378  53.1593 340.3659 0003012 166.4029 193.7055 15.34416075 59652","mean_motion":15.34416075,"eccentricity":0.0003012,"inclination_deg":53.1593,"raan_deg":340.3659,"arg_perigee_deg":166.4029,"mean_anomaly_deg":193.7055,"bstar":0.00019222,"rev_number":5965,"period_min":93.846774904258,"perigee_km":460.59501564691,"apogee_km":464.71590902622,"semimajor_km":6840.7924623366,"source":"CELESTRAK","updated_at":"2026-09-21T09:00:35.596501Z"}}